sat.trackr.live / text

‹ back to catalog

STARLINK-30557

NORAD 58087 · 2023-160N

PAYLOAD ACTIVE UNKNOWN

§ Identity

Operator
Country
US
Launch date
2023-10-18
Launch site
AFETR
Launch vehicle
Mass (kg)
RCS (m²)

Purposes: comms

External: N2YO · Heavens-Above · Gunter

§ Orbital elements

Epoch: 2026-05-24T22:16:57.006048Z

Period
94.27 min
Inclination
43.0030°
Eccentricity
0.0001001
Mean motion
15.27581380 rev/d
Perigee alt
482.4 km
Apogee alt
483.7 km
Semi-major
6,861.2 km
B*
5.0311e-5
RAAN
10.8953°
Arg perigee
271.9763°
Mean anomaly
88.0974°
Rev number
14,456

§ Raw data

STARLINK-305571 58087U 23160N   26144.92843757  .00001123  00000+0  50311-4 0  99922 58087  43.0030  10.8953 0001001 271.9763  88.0974 15.27581380144569

JSON: /api/v1/satellites/58087 · /tle

For live sub-satellite position, see the globe view (requires WebGL).

§ Visibility from observer

Set your observer location to see the next 7 days of passes ≥ 10°. The values pass through the URL so the page stays shareable.

No JS? Fill the form by hand. The geolocation button needs JavaScript.